TimeCDT,TemperatureF,Dew PointF,Humidity,Sea Level PressureIn,VisibilityMPH,Wind Direction,Wind SpeedMPH,Gust SpeedMPH,PrecipitationIn,Events,Conditions,WindDirDegrees,DateUTC
12:15 AM,75.9,74.5,95,29.77,2.0,NNW,11.5,-,0.31,Rain,Heavy Rain,340,2013-09-21 05:15:00
12:35 AM,75.9,74.7,96,29.77,7.0,North,9.2,-,0.48,Rain,Rain,10,2013-09-21 05:35:00
12:55 AM,76.1,74.8,96,29.76,10.0,ENE,5.8,-,0.49,Rain,Light Rain,60,2013-09-21 05:55:00
1:15 AM,76.1,74.8,96,29.75,10.0,North,5.8,-,0.02,Rain,Rain,360,2013-09-21 06:15:00
1:35 AM,75.9,74.8,96,29.74,7.0,NE,5.8,-,0.08,Rain,Rain,40,2013-09-21 06:35:00
1:55 AM,75.7,74.7,96,29.75,10.0,North,3.5,-,0.10,Rain,Rain,10,2013-09-21 06:55:00
2:15 AM,76.1,74.8,96,29.76,10.0,NE,4.6,-,0.01,Rain,Light Rain,50,2013-09-21 07:15:00
2:35 AM,76.1,75.0,96,29.75,7.0,Calm,Calm,-,0.04,Rain,Light Rain,0,2013-09-21 07:35:00
2:55 AM,76.1,74.8,96,29.75,10.0,NNW,3.5,-,0.04,Rain,Light Rain,330,2013-09-21 07:55:00
3:15 AM,76.1,74.8,96,29.74,10.0,NNW,3.5,-,N/A,Rain,Light Rain,330,2013-09-21 08:15:00
3:35 AM,76.1,74.8,96,29.73,10.0,North,5.8,-,N/A,,Overcast,350,2013-09-21 08:35:00
3:55 AM,76.1,74.8,96,29.73,10.0,North,6.9,-,N/A,,Overcast,360,2013-09-21 08:55:00
4:15 AM,76.1,75.2,97,29.73,7.0,North,9.2,-,N/A,,Overcast,360,2013-09-21 09:15:00
4:35 AM,76.1,75.2,97,29.73,3.0,NNE,8.1,-,N/A,Rain,Light Rain,20,2013-09-21 09:35:00
4:55 AM,75.7,74.7,96,29.74,3.0,North,16.1,-,0.03,Rain,Heavy Rain,10,2013-09-21 09:55:00
5:15 AM,75.0,73.8,96,29.74,5.0,North,12.7,19.6,0.02,Rain,Light Rain,360,2013-09-21 10:15:00
5:35 AM,74.5,73.4,96,29.74,5.0,NNE,10.4,-,0.15,Rain,Heavy Rain,20,2013-09-21 10:35:00
5:55 AM,74.5,73.2,96,29.73,5.0,NNE,13.8,18.4,0.19,Rain,Light Rain,20,2013-09-21 10:55:00
6:15 AM,74.3,73.0,96,29.74,10.0,North,10.4,-,0.01,Rain,Light Rain,10,2013-09-21 11:15:00
6:35 AM,74.3,72.9,95,29.74,10.0,North,13.8,-,0.02,,Overcast,10,2013-09-21 11:35:00
6:55 AM,74.3,72.7,95,29.75,10.0,North,12.7,18.4,0.02,Rain,Light Rain,360,2013-09-21 11:55:00
7:15 AM,73.9,72.5,95,29.75,7.0,North,11.5,-,0.05,Rain,Heavy Rain,360,2013-09-21 12:15:00
7:35 AM,73.4,72.1,96,29.76,5.0,North,11.5,-,0.19,Rain,Rain,360,2013-09-21 12:35:00
7:55 AM,73.0,71.8,96,29.77,3.0,North,13.8,19.6,0.35,Rain,Heavy Rain,360,2013-09-21 12:55:00
8:15 AM,72.5,71.4,96,29.78,1.0,North,10.4,16.1,0.39,Rain,Heavy Rain,350,2013-09-21 13:15:00
8:35 AM,72.5,71.6,97,29.78,1.8,North,11.5,-,0.63,Rain,Heavy Rain,10,2013-09-21 13:35:00
8:55 AM,72.5,71.6,97,29.79,7.0,North,11.5,-,0.69,Rain,Rain,360,2013-09-21 13:55:00
9:15 AM,72.7,71.6,96,29.79,7.0,NNE,13.8,21.9,0.01,Rain,Light Rain,20,2013-09-21 14:15:00
9:35 AM,73.0,71.6,95,29.80,10.0,North,10.4,-,0.02,,Light Drizzle,360,2013-09-21 14:35:00
9:55 AM,73.4,71.8,95,29.80,10.0,North,16.1,19.6,0.02,,Light Drizzle,10,2013-09-21 14:55:00
10:15 AM,73.8,71.8,93,29.80,10.0,North,16.1,21.9,N/A,,Overcast,10,2013-09-21 15:15:00
10:35 AM,74.1,72.0,93,29.81,10.0,North,15.0,23.0,N/A,,Overcast,10,2013-09-21 15:35:00
10:55 AM,74.1,71.8,92,29.82,10.0,North,11.5,19.6,N/A,,Overcast,10,2013-09-21 15:55:00
11:15 AM,74.7,72.0,91,29.82,10.0,NNE,13.8,20.7,N/A,,Overcast,20,2013-09-21 16:15:00
11:35 AM,75.4,72.1,90,29.82,10.0,NNE,13.8,-,N/A,,Overcast,20,2013-09-21 16:35:00
11:55 AM,75.4,72.1,90,29.81,10.0,North,15.0,21.9,N/A,,Overcast,10,2013-09-21 16:55:00
12:15 PM,76.5,72.5,87,29.81,10.0,North,16.1,-,N/A,,Overcast,10,2013-09-21 17:15:00
12:35 PM,76.6,72.0,85,29.81,10.0,North,13.8,20.7,N/A,,Overcast,10,2013-09-21 17:35:00
12:55 PM,76.6,71.8,85,29.80,10.0,North,11.5,19.6,N/A,,Overcast,360,2013-09-21 17:55:00
1:15 PM,77.0,72.1,85,29.80,10.0,North,11.5,-,N/A,,Overcast,360,2013-09-21 18:15:00
1:35 PM,76.8,72.0,85,29.80,10.0,North,11.5,-,N/A,,Overcast,360,2013-09-21 18:35:00
1:55 PM,77.0,71.8,84,29.79,10.0,North,15.0,19.6,N/A,,Overcast,10,2013-09-21 18:55:00
2:15 PM,77.0,71.4,83,29.78,10.0,North,12.7,19.6,N/A,,Overcast,10,2013-09-21 19:15:00
2:35 PM,77.0,71.1,82,29.78,10.0,NNE,9.2,21.9,N/A,,Overcast,20,2013-09-21 19:35:00
2:55 PM,77.7,71.1,80,29.77,10.0,NNE,11.5,-,N/A,,Overcast,20,2013-09-21 19:55:00
3:15 PM,77.2,70.9,81,29.77,10.0,North,12.7,23.0,N/A,,Overcast,360,2013-09-21 20:15:00
3:35 PM,77.0,70.7,81,29.77,10.0,North,12.7,20.7,N/A,,Overcast,360,2013-09-21 20:35:00
3:55 PM,77.2,70.5,80,29.77,10.0,North,12.7,19.6,N/A,,Overcast,10,2013-09-21 20:55:00
4:15 PM,77.4,70.3,79,29.77,10.0,North,9.2,18.4,N/A,,Overcast,10,2013-09-21 21:15:00
4:35 PM,78.1,70.9,78,29.76,10.0,North,13.8,19.6,N/A,,Overcast,10,2013-09-21 21:35:00
4:55 PM,77.9,70.7,78,29.76,10.0,NNE,9.2,-,N/A,,Overcast,20,2013-09-21 21:55:00
5:15 PM,78.4,70.7,77,29.76,10.0,North,9.2,-,N/A,,Overcast,10,2013-09-21 22:15:00
5:35 PM,78.4,70.7,77,29.76,10.0,North,6.9,-,N/A,,Overcast,10,2013-09-21 22:35:00
5:55 PM,78.4,71.1,78,29.76,10.0,NNE,6.9,-,N/A,,Overcast,20,2013-09-21 22:55:00
6:15 PM,78.6,70.9,77,29.76,10.0,NNE,10.4,-,N/A,,Overcast,30,2013-09-21 23:15:00
6:35 PM,77.9,70.3,77,29.76,10.0,NNE,5.8,-,N/A,,Overcast,30,2013-09-21 23:35:00
6:55 PM,77.2,70.5,80,29.76,10.0,NNE,4.6,-,N/A,,Mostly Cloudy,30,2013-09-21 23:55:00
7:15 PM,76.6,70.7,82,29.77,10.0,NNE,4.6,-,N/A,,Overcast,30,2013-09-22 00:15:00
7:35 PM,76.5,70.7,82,29.77,10.0,NNE,6.9,-,N/A,,Overcast,30,2013-09-22 00:35:00
7:55 PM,76.6,70.3,81,29.77,10.0,NE,8.1,-,N/A,,Overcast,40,2013-09-22 00:55:00
8:15 PM,76.6,69.8,79,29.78,10.0,NE,6.9,-,N/A,,Overcast,40,2013-09-22 01:15:00
8:35 PM,76.8,69.6,78,29.78,10.0,NNE,6.9,-,N/A,,Overcast,30,2013-09-22 01:35:00
8:55 PM,76.5,69.1,78,29.79,10.0,NNE,6.9,-,N/A,,Overcast,30,2013-09-22 01:55:00
9:15 PM,76.5,68.9,77,29.79,10.0,NNE,8.1,-,N/A,,Overcast,30,2013-09-22 02:15:00
9:35 PM,76.5,68.9,77,29.80,10.0,NNE,6.9,-,N/A,,Overcast,30,2013-09-22 02:35:00
9:55 PM,76.1,68.9,78,29.80,10.0,NNE,5.8,-,N/A,,Overcast,20,2013-09-22 02:55:00
10:15 PM,75.9,69.3,80,29.80,10.0,NNE,5.8,-,N/A,,Overcast,30,2013-09-22 03:15:00
10:35 PM,75.9,69.3,80,29.80,10.0,NNE,6.9,-,N/A,,Overcast,20,2013-09-22 03:35:00
10:55 PM,76.1,69.1,79,29.80,10.0,NE,5.8,-,N/A,,Overcast,40,2013-09-22 03:55:00
11:15 PM,76.1,68.9,78,29.80,10.0,North,5.8,-,N/A,,Overcast,10,2013-09-22 04:15:00
11:35 PM,75.4,69.1,81,29.80,10.0,NNE,4.6,-,N/A,,Overcast,30,2013-09-22 04:35:00
11:55 PM,75.4,68.9,80,29.80,10.0,North,4.6,-,N/A,,Overcast,10,2013-09-22 04:55:00